Location: JAPAN
(35.1974°N, 137.0216°E)
Time: 23:15:18
(UTC+09:00)

ISS - Visible Passes

Search period start: 22 October 2019 00:00
Search period end: 01 November 2019 00:00
Orbit: 411 x 421 km, 51.6° (Epoch: 22 October)

Date Brightness Start Highest point End Pass type
(mag) Time Alt. Az. Time Alt. Az. Time Alt. Az.
23 Oct -1.9 05:15:37 10° SSW 05:18:39 32° SE 05:21:41 10° ENE visible
24 Oct -1.0 04:27:54 10° S 04:30:13 17° SE 04:32:31 10° E visible
25 Oct -3.8 05:14:44 10° SW 05:18:05 70° NW 05:21:27 10° NE visible
26 Oct -3.3 04:29:04 52° S 04:29:31 58° SE 04:32:50 10° NE visible
27 Oct -0.6 03:43:11 15° ENE 03:43:11 15° ENE 03:43:58 10° ENE visible
27 Oct -2.5 05:16:07 18° WNW 05:17:42 25° NNW 05:20:33 10° NNE visible
28 Oct -2.5 04:30:02 31° N 04:30:02 31° N 04:32:12 10° NE visible
29 Oct -1.5 05:16:42 11° NW 05:17:32 12° NNW 05:18:57 10° N visible
30 Oct -1.2 04:30:19 13° N 04:30:19 13° N 04:31:00 10° NNE visible
